STARLINK-37733, 69329

Orbit data source: Space-Track

STARLINK-37733, 69329 is a payload satellite owned by SpaceX/Seattle (US) in SSO that was launched on Wed, 03 Jun 2026 UTC via an FALCON 9 launch vehicle from the Air Force Western Test Range (AFWTR). Payload-class satellites include a variety of spacecraft equipped with specific instruments for various scientific and technological missions. These include communications satellites like Starlink; space stations such as the ISS; scientific satellites like the Hubble; Earth observation satellites from companies like Planet Labs, Umbra, and HawkEye 360; GPS; miniature CubeSats for education and research; and military/defense satellites.

Not visible in the next 10 days
Identifier
69329, 2026-122A
Orbit
SSO
Country
Flag of USUS
Related business
Manufacturer
SpaceX/Seattle
Mission
Operational spacecraft
Bus & Motor
STARLINK V2MO, Unknown motor
Mass
575 kg wet, ~530 kg dry
Launch date (UTC)
2026-06-03 (2 weeks ago)
Launch vehicle
FALCON 9
Launch site
Air Force Western Test Range (AFWTR)
Object type
Payload
Rocket body
Debris
Shape & HBR
Unknown
Radar Cross Section
RCS unknown

Expand to show TLE details & history
Last TLE update: 10 hours ago

TLE from 10 hours ago
0 STARLINK-37733
1 69329U 26122A   26171.41668980 -.02441744  00000-0 -25308-1 0  9998
2 69329  97.2844 201.0203 0001546  80.0769   5.5654 15.67906976  3878
Epoch: 2026-06-20T10:00Z
TLE epoch observation values (Epoch: 2026-06-20T10:00:01.998Z)
Latitude
81.56258°
Longitude
83.40812°
Altitude
377.343 km
Speed
7.691 km/s
True Right ascension
09h 28m 11s
True Declination
81° 30' 35"
Sunlit
Object was in daylight at epoch
Visualization orbit readout
Latitude
Unknown
Longitude
Unknown
Altitude
Unknown
Speed
Unknown
Apparent Right ascension
Unknown
Apparent Declination
Unknown
Sunlit
N/A
Visualization observer readout
Local Sidereal Time
07:14:11
Azimuth
Unknown
Elevation
Unknown
Doppler factor
Unknown
Orbital elements
Apogee altitude
362.83 km
Perigee altitude
360.746 km
Semi-major axis
6,739.925 km
Eccentricity
0.00015
Inclination
97.2844°
RAAN
201.0203°
Arg. of periapsis
80.0769°
True anomaly
5.56712°
Mean anomaly
5.5654°
Eccentric anomaly
5.56626°
Mean motion
3.92248 °/min
Orbital period
91.78 mins
BSTAR
-0.025308
Loading maneuver chart data...
Computing Atmospheric mass density...
Loading historical data...
Loading historical data...
Loading historical data...
Loading historical data...
Loading historical data...
Loading historical data...
Loading historical data...

Documentation

Showing up to 5 results
|